TimeMDT,TemperatureF,Dew PointF,Humidity,Sea Level PressureIn,VisibilityMPH,Wind Direction,Wind SpeedMPH,Gust SpeedMPH,PrecipitationIn,Events,Conditions,WindDirDegrees,DateUTC
12:53 AM,57.0,53.1,87,29.80,10.0,Calm,Calm,-,N/A,,Partly Cloudy,0,2013-09-14 06:53:00
1:53 AM,55.0,53.1,93,29.79,10.0,WSW,3.5,-,N/A,,Clear,240,2013-09-14 07:53:00
2:53 AM,55.0,53.1,93,29.78,10.0,WNW,3.5,-,N/A,,Clear,300,2013-09-14 08:53:00
3:53 AM,54.0,51.1,90,29.80,10.0,Calm,Calm,-,0.01,,Clear,0,2013-09-14 09:53:00
4:53 AM,54.0,50.0,86,29.81,10.0,Calm,Calm,-,N/A,,Clear,0,2013-09-14 10:53:00
5:53 AM,54.0,50.0,86,29.83,10.0,Calm,Calm,-,N/A,,Partly Cloudy,0,2013-09-14 11:53:00
6:37 AM,55.4,51.8,88,29.95,10.0,Calm,Calm,-,N/A,,Mostly Cloudy,0,2013-09-14 12:37:00
6:53 AM,55.9,52.0,87,29.83,10.0,Calm,Calm,-,N/A,,Overcast,0,2013-09-14 12:53:00
7:53 AM,55.9,53.1,90,29.85,10.0,Calm,Calm,-,N/A,,Partly Cloudy,0,2013-09-14 13:53:00
8:53 AM,61.0,53.1,75,29.84,10.0,North,4.6,-,N/A,,Clear,360,2013-09-14 14:53:00
9:53 AM,63.0,53.1,70,29.85,10.0,Variable,3.5,-,N/A,,Partly Cloudy,0,2013-09-14 15:53:00
10:53 AM,66.0,54.0,65,29.85,10.0,ENE,6.9,-,N/A,,Mostly Cloudy,60,2013-09-14 16:53:00
11:53 AM,66.0,54.0,65,29.85,10.0,North,4.6,-,N/A,,Overcast,350,2013-09-14 17:53:00
12:53 PM,68.0,54.0,61,29.86,10.0,North,9.2,-,N/A,,Overcast,360,2013-09-14 18:53:00
1:08 PM,68.0,53.6,60,29.99,10.0,North,13.8,23.0,N/A,,Overcast,360,2013-09-14 19:08:00
1:49 PM,66.2,55.4,68,29.99,10.0,North,17.3,26.5,N/A,,Overcast,350,2013-09-14 19:49:00
1:53 PM,66.9,55.0,66,29.87,10.0,NNW,15.0,26.5,N/A,,Overcast,340,2013-09-14 19:53:00
2:53 PM,64.0,55.9,75,29.90,10.0,NNW,20.7,29.9,N/A,,Overcast,340,2013-09-14 20:53:00
3:08 PM,62.6,55.4,77,30.02,10.0,North,21.9,33.4,N/A,,Overcast,350,2013-09-14 21:08:00
3:35 PM,62.6,57.2,82,30.02,10.0,North,20.7,27.6,N/A,,Overcast,350,2013-09-14 21:35:00
3:43 PM,62.6,57.2,82,30.03,10.0,NNW,21.9,28.8,N/A,,Overcast,340,2013-09-14 21:43:00
3:51 PM,60.8,55.4,82,30.03,10.0,North,20.7,29.9,N/A,,Overcast,350,2013-09-14 21:51:00
3:52 PM,61.0,55.9,83,29.93,10.0,North,21.9,29.9,N/A,,Overcast,350,2013-09-14 21:52:00
4:05 PM,60.8,57.2,88,30.04,4.0,NNW,19.6,29.9,0.00,Rain,Light Rain,330,2013-09-14 22:05:00
4:18 PM,59.0,57.2,94,30.04,7.0,NNW,13.8,27.6,0.01,Rain,Light Rain,330,2013-09-14 22:18:00
4:53 PM,59.0,57.0,93,29.95,4.0,NNW,13.8,25.3,0.02,Rain,Light Rain,330,2013-09-14 22:53:00
5:42 PM,59.0,57.2,94,30.06,4.0,NW,9.2,-,0.03,Rain,Rain,320,2013-09-14 23:42:00
5:46 PM,59.0,57.2,94,30.06,1.8,NNW,10.4,-,0.06,Rain,Heavy Rain,330,2013-09-14 23:46:00
5:53 PM,59.0,57.0,93,29.97,1.2,NNW,9.2,-,0.09,Rain,Heavy Rain,330,2013-09-14 23:53:00
6:00 PM,59.0,57.2,94,30.07,0.8,NNW,6.9,-,0.10,Rain,Heavy Rain,340,2013-09-15 00:00:00
6:09 PM,59.0,57.2,94,30.07,0.8,WNW,4.6,-,0.21,Rain,Heavy Rain,300,2013-09-15 00:09:00
6:19 PM,59.0,57.2,94,30.07,1.2,West,10.4,-,0.26,Rain,Rain,280,2013-09-15 00:19:00
6:22 PM,59.0,57.2,94,30.07,2.0,WNW,10.4,-,0.26,Rain,Rain,300,2013-09-15 00:22:00
6:32 PM,59.0,57.2,94,30.07,9.0,NNW,8.1,-,0.27,Rain,Light Rain,340,2013-09-15 00:32:00
6:53 PM,59.0,57.0,93,29.98,7.0,NNW,12.7,26.5,0.28,Rain,Light Rain,330,2013-09-15 00:53:00
7:08 PM,59.0,57.2,94,30.08,10.0,NNW,12.7,-,0.00,,Overcast,330,2013-09-15 01:08:00
7:39 PM,59.0,57.2,94,30.10,10.0,NNW,11.5,19.6,0.00,,Overcast,330,2013-09-15 01:39:00
7:53 PM,59.0,57.0,93,30.00,10.0,NNW,9.2,-,0.00,,Overcast,340,2013-09-15 01:53:00
8:39 PM,59.0,57.2,94,30.12,10.0,NW,10.4,-,0.00,,Overcast,320,2013-09-15 02:39:00
8:53 PM,60.1,57.0,90,30.01,10.0,NW,11.5,-,0.00,,Overcast,320,2013-09-15 02:53:00
9:02 PM,59.0,57.2,94,30.13,10.0,NW,11.5,-,N/A,,Overcast,320,2013-09-15 03:02:00
9:09 PM,59.0,57.2,94,30.13,10.0,NNW,8.1,-,N/A,,Overcast,330,2013-09-15 03:09:00
9:20 PM,59.0,57.2,94,30.13,2.5,NNW,9.2,-,0.07,Rain,Heavy Rain,340,2013-09-15 03:20:00
9:27 PM,59.0,57.2,94,30.13,2.0,NW,13.8,18.4,0.09,Rain,Rain,320,2013-09-15 03:27:00
9:41 PM,59.0,57.2,94,30.14,1.5,NW,15.0,26.5,0.25,Rain,Heavy Rain,320,2013-09-15 03:41:00
9:50 PM,59.0,57.2,94,30.14,3.0,NW,8.1,23.0,0.28,Rain,Light Rain,310,2013-09-15 03:50:00
9:53 PM,59.0,57.0,93,30.03,8.0,NNW,6.9,23.0,0.28,Rain,Light Rain,330,2013-09-15 03:53:00
10:24 PM,59.0,57.2,94,30.15,10.0,NNW,8.1,-,0.00,,Overcast,340,2013-09-15 04:24:00
10:34 PM,59.0,57.2,94,30.16,10.0,NNW,8.1,-,0.00,,Overcast,330,2013-09-15 04:34:00
10:49 PM,59.0,57.2,94,30.16,10.0,NNE,4.6,-,0.00,,Overcast,20,2013-09-15 04:49:00
10:53 PM,59.0,57.9,96,30.03,10.0,NNE,6.9,-,0.00,,Overcast,20,2013-09-15 04:53:00
11:00 PM,59.0,57.2,94,30.16,10.0,NNW,6.9,-,N/A,,Overcast,340,2013-09-15 05:00:00
11:43 PM,59.0,57.2,94,30.17,10.0,NNW,5.8,-,N/A,,Overcast,340,2013-09-15 05:43:00
11:53 PM,59.0,57.9,96,30.04,10.0,NNW,4.6,-,N/A,,Overcast,330,2013-09-15 05:53:00